Hourly Data Report for September 28, 2017

All times are specified in Local Standard Time (LST). Add 1 hour to adjust for Daylight Saving Time where and when it is observed.

ARCTIC BAY CS
NUNAVUT

72°59'34.000" N
85°00'44.000" W
10.00 m
2400404
71592
XAT

Download Data

Hourly Data (September 2017)
Hourly Data Report for September 28, 2017
Temp Definition
°C
Dew Point Temp Definition
°C
Rel Hum Definition
%
Wind Dir Definition
10's deg

Wind Spd Definition
km/h
Visibility Definition
km
Stn Press Definition
kPa
Hmdx Definition


Wind Chill Definition


Weather Definition


TIME
00:00 -1.3 -4.9 77 13 20   99.95   -7 LegendNANA
01:00 -1.3 -4.8 77 14 24   99.93   -7 LegendNANA
02:00 -1.1 -4.4 78 16 10   99.95   -5 LegendNANA
03:00 -1.6 -4.1 83 29 27   99.98   -8 LegendNANA
04:00 -2.1 -4.9 81 31 30   100.03   -9 LegendNANA
05:00 -2.6 -5.9 78 31 23   100.08   -9 LegendNANA
06:00 -2.4 -6.0 77 30 22   100.08   -9 LegendNANA
07:00 -2.1 -4.9 81 30 24   100.06   -8 LegendNANA
08:00 -3.6 -5.7 85 32 35   100.11   -12 LegendNANA
09:00 -4.0 -6.1 85 31 27   100.17   -11 LegendNANA
10:00 -4.2 -6.4 84 31 28   100.18   -12 LegendNANA
11:00 -3.7 -6.7 80 31 18   100.18   -10 LegendNANA
12:00 -3.3 -6.1 81 30 21   100.19   -10 LegendNANA
13:00 -2.9 -5.5 83 32 25   100.19   -10 LegendNANA
14:00 -3.9 -5.4 89 33 31   100.28   -12 LegendNANA
15:00 -3.8 -4.9 92 32 34   100.32   -12 LegendNANA
16:00 -3.8 -5.5 88 33 36   100.37   -12 LegendNANA
17:00 -4.0 -5.0 93 33 36   100.46   -12 LegendNANA
18:00 -4.5 -5.3 94 34 38   100.52   -13 LegendNANA
19:00 -4.3 -4.9 95 32 35   100.56   -13 LegendNANA
20:00 -4.4 -6.0 89 33 29   100.60   -12 LegendNANA
21:00 -4.5 -6.3 87 33 28   100.62   -12 LegendNANA
22:00 -4.6 -6.7 85 33 28   100.66   -12 LegendNANA
23:00 -4.8 -6.1 91 33 30   100.69   -13 LegendNANA

Notes on Data Quality.

Legend

  • E = Estimated
  • M = Missing
  • NA = Not Available
  • ‡ = Partner data that is not subject to review by the National Climate Archives
Date modified: